Location: Blackie
(50.6050°N, 113.6230°W)
Time: 21:43:23
(UTC+00:00)

ISS - Visible Passes

Search period start: 02 December 2021 00:00
Search period end: 12 December 2021 00:00
Orbit: 417 x 423 km, 51.6° (Epoch: 02 December)

Date Brightness Start Highest point End Pass type
(mag) Time Alt. Az. Time Alt. Az. Time Alt. Az.
02 Dec -3.8 01:28:16 10° WNW 01:31:42 87° SSW 01:32:21 55° ESE visible
02 Dec -0.1 03:05:19 10° W 03:05:21 10° W 03:05:21 10° W visible
03 Dec -3.8 00:41:05 10° WNW 00:44:29 81° N 00:47:13 15° E visible
03 Dec -1.9 02:18:00 10° W 02:20:13 30° WSW 02:20:13 30° WSW visible
04 Dec -3.1 01:30:44 10° WNW 01:34:04 53° SSW 01:35:11 35° SSE visible
05 Dec -3.5 00:43:30 10° WNW 00:46:55 70° SSW 00:50:16 10° ESE visible
05 Dec -1.3 02:20:49 10° W 02:23:17 19° SW 02:23:17 19° SW visible
06 Dec -1.8 01:33:20 10° W 01:36:16 27° SW 01:38:35 14° SSE visible
07 Dec -2.3 00:45:58 10° W 00:49:09 38° SSW 00:52:20 10° SE visible
08 Dec -0.6 01:36:37 10° WSW 01:38:15 13° SW 01:39:52 10° SSW visible
09 Dec -0.8 00:48:44 10° W 00:51:13 19° SW 00:53:40 10° S visible
